contact:dominique.lefevre@mio.osupytheas.fr, maurice.libes@osupytheas.fr, didier.mallarino@osupytheas.fr
Project:EMSO http://www.emso-fr.org/EMSO-France
Depth: 2436.0 m
Title:EMSO Ligure Ouest : Data MII capteur MICROCAT
DateTime_Computer,Latitude,Longitude,Temperature,Conductivity,Pressure,DateTime_Instrument
DateTime_Computer,Latitude,Longitude,degC,S m-1,dbar,DateTime_Instrument
2019-08-20T00:01:33Z,42.805,6.029,13.2957,4.59955,2469.993,2019-8-20T02:01:54Z
2019-08-20T00:04:36Z,42.805,6.029,13.2956,4.59954,2469.947,2019-8-20T02:04:57Z
2019-08-20T00:07:39Z,42.805,6.029,13.2954,4.59954,2469.97,2019-8-20T02:08:00Z
2019-08-20T00:10:43Z,42.805,6.029,13.2957,4.59953,2470.007,2019-8-20T02:11:04Z
2019-08-20T00:13:46Z,42.805,6.029,13.2955,4.59955,2469.984,2019-8-20T02:14:07Z
2019-08-20T00:16:49Z,42.805,6.029,13.2959,4.59954,2470.007,2019-8-20T02:17:10Z
2019-08-20T00:19:52Z,42.805,6.029,13.2953,4.59954,2469.97,2019-8-20T02:20:13Z
2019-08-20T00:22:55Z,42.805,6.029,13.2958,4.59955,2469.947,2019-8-20T02:23:16Z
2019-08-20T00:25:59Z,42.805,6.029,13.2958,4.59954,2469.923,2019-8-20T02:26:20Z
2019-08-20T00:29:02Z,42.805,6.029,13.2959,4.59954,2469.97,2019-8-20T02:29:23Z
2019-08-20T00:32:05Z,42.805,6.029,13.2954,4.59954,2469.947,2019-8-20T02:32:26Z
2019-08-20T00:35:08Z,42.805,6.029,13.2958,4.59956,2469.96,2019-8-20T02:35:29Z
2019-08-20T00:38:11Z,42.805,6.029,13.2955,4.59954,2469.96,2019-8-20T02:38:32Z
2019-08-20T00:41:14Z,42.805,6.029,13.2957,4.59954,2469.96,2019-8-20T02:41:36Z
2019-08-20T00:44:18Z,42.805,6.029,13.2958,4.59954,2469.96,2019-8-20T02:44:39Z
2019-08-20T00:47:21Z,42.805,6.029,13.2957,4.59956,2469.937,2019-8-20T02:47:42Z
2019-08-20T00:50:24Z,42.805,6.029,13.2957,4.59953,2469.947,2019-8-20T02:50:45Z
2019-08-20T00:53:27Z,42.805,6.029,13.2957,4.59956,2469.947,2019-8-20T02:53:48Z
2019-08-20T00:56:31Z,42.805,6.029,13.2959,4.59953,2469.923,2019-8-20T02:56:52Z
2019-08-20T00:59:34Z,42.805,6.029,13.2958,4.59954,2469.9,2019-8-20T02:59:55Z
2019-08-20T01:02:37Z,42.805,6.029,13.2957,4.59953,2469.937,2019-8-20T03:02:58Z
2019-08-20T01:05:40Z,42.805,6.029,13.2956,4.59952,2469.933,2019-8-20T03:06:01Z
2019-08-20T01:08:43Z,42.805,6.029,13.2953,4.59954,2469.923,2019-8-20T03:09:04Z
2019-08-20T01:11:47Z,42.805,6.029,13.2957,4.59954,2469.9,2019-8-20T03:12:08Z
2019-08-20T01:14:50Z,42.805,6.029,13.2958,4.59954,2469.947,2019-8-20T03:15:11Z
2019-08-20T01:17:53Z,42.805,6.029,13.2957,4.59954,2469.923,2019-8-20T03:18:14Z
2019-08-20T01:20:56Z,42.805,6.029,13.2954,4.59954,2469.876,2019-8-20T03:21:17Z
2019-08-20T01:23:59Z,42.805,6.029,13.2956,4.59955,2469.89,2019-8-20T03:24:20Z
2019-08-20T01:27:02Z,42.805,6.029,13.2954,4.59952,2469.876,2019-8-20T03:27:24Z
2019-08-20T01:30:06Z,42.805,6.029,13.2956,4.59952,2469.914,2019-8-20T03:30:27Z
2019-08-20T01:33:09Z,42.805,6.029,13.2958,4.59954,2469.9,2019-8-20T03:33:30Z
2019-08-20T01:36:12Z,42.805,6.029,13.2955,4.59954,2469.853,2019-8-20T03:36:33Z
2019-08-20T01:39:15Z,42.805,6.029,13.2957,4.59954,2469.914,2019-8-20T03:39:36Z
2019-08-20T01:42:18Z,42.805,6.029,13.2953,4.59954,2469.9,2019-8-20T03:42:39Z
2019-08-20T01:45:22Z,42.805,6.029,13.2958,4.59952,2469.923,2019-8-20T03:45:43Z
2019-08-20T01:48:25Z,42.805,6.029,13.2955,4.59953,2469.937,2019-8-20T03:48:46Z
2019-08-20T01:51:28Z,42.805,6.029,13.2957,4.59954,2469.914,2019-8-20T03:51:49Z
2019-08-20T01:54:31Z,42.805,6.029,13.2957,4.59952,2469.876,2019-8-20T03:54:52Z
2019-08-20T01:57:34Z,42.805,6.029,13.2959,4.59956,2469.876,2019-8-20T03:57:55Z
2019-08-20T02:00:37Z,42.805,6.029,13.2958,4.59954,2469.914,2019-8-20T04:00:59Z
2019-08-20T02:03:41Z,42.805,6.029,13.2956,4.59952,2469.876,2019-8-20T04:04:02Z
2019-08-20T02:06:44Z,42.805,6.029,13.2955,4.59952,2469.876,2019-8-20T04:07:05Z
2019-08-20T02:09:47Z,42.805,6.029,13.2956,4.59954,2469.89,2019-8-20T04:10:08Z
2019-08-20T02:12:50Z,42.805,6.029,13.2952,4.59952,2469.876,2019-8-20T04:13:11Z
2019-08-20T02:15:54Z,42.805,6.029,13.2957,4.59954,2469.9,2019-8-20T04:16:15Z
2019-08-20T02:18:57Z,42.805,6.029,13.2955,4.59954,2469.914,2019-8-20T04:19:18Z
2019-08-20T02:22:00Z,42.805,6.029,13.2955,4.59954,2469.9,2019-8-20T04:22:21Z
2019-08-20T02:25:03Z,42.805,6.029,13.2954,4.59956,2469.867,2019-8-20T04:25:24Z
2019-08-20T02:28:06Z,42.805,6.029,13.2956,4.59955,2469.876,2019-8-20T04:28:27Z
2019-08-20T02:31:10Z,42.805,6.029,13.2957,4.59954,2469.89,2019-8-20T04:31:31Z
2019-08-20T02:34:13Z,42.805,6.029,13.2958,4.59954,2469.876,2019-8-20T04:34:34Z
2019-08-20T02:37:16Z,42.805,6.029,13.2957,4.59953,2469.89,2019-8-20T04:37:37Z
2019-08-20T02:40:19Z,42.805,6.029,13.2956,4.59952,2469.89,2019-8-20T04:40:40Z
2019-08-20T02:43:23Z,42.805,6.029,13.2954,4.59953,2469.839,2019-8-20T04:43:44Z
2019-08-20T02:46:26Z,42.805,6.029,13.2952,4.59951,2469.853,2019-8-20T04:46:47Z
2019-08-20T02:49:29Z,42.805,6.029,13.2960,4.59954,2469.853,2019-8-20T04:49:50Z
2019-08-20T02:52:32Z,42.805,6.029,13.2955,4.59953,2469.853,2019-8-20T04:52:53Z
2019-08-20T02:55:35Z,42.805,6.029,13.2955,4.59953,2469.853,2019-8-20T04:55:56Z
2019-08-20T02:58:39Z,42.805,6.029,13.2956,4.59952,2469.867,2019-8-20T04:59:00Z
2019-08-20T03:01:42Z,42.805,6.029,13.2958,4.59954,2469.853,2019-8-20T05:02:03Z
2019-08-20T03:04:45Z,42.805,6.029,13.2955,4.59954,2469.83,2019-8-20T05:05:06Z
2019-08-20T03:07:48Z,42.805,6.029,13.2953,4.59952,2469.867,2019-8-20T05:08:09Z
2019-08-20T03:10:51Z,42.805,6.029,13.2956,4.59951,2469.853,2019-8-20T05:11:12Z
2019-08-20T03:13:54Z,42.805,6.029,13.2954,4.59952,2469.853,2019-8-20T05:14:16Z
2019-08-20T03:16:58Z,42.805,6.029,13.2956,4.59952,2469.83,2019-8-20T05:17:19Z
2019-08-20T03:20:01Z,42.805,6.029,13.2956,4.59954,2469.853,2019-8-20T05:20:22Z
2019-08-20T03:23:04Z,42.805,6.029,13.2956,4.59952,2469.867,2019-8-20T05:23:26Z
2019-08-20T03:26:08Z,42.805,6.029,13.2955,4.59953,2469.867,2019-8-20T05:26:29Z
2019-08-20T03:29:11Z,42.805,6.029,13.2955,4.59953,2469.876,2019-8-20T05:29:32Z
2019-08-20T03:32:14Z,42.805,6.029,13.2960,4.59953,2469.853,2019-8-20T05:32:35Z
2019-08-20T03:35:17Z,42.805,6.029,13.2957,4.59953,2469.89,2019-8-20T05:35:38Z
2019-08-20T03:38:20Z,42.805,6.029,13.2953,4.59955,2469.853,2019-8-20T05:38:42Z
2019-08-20T03:41:24Z,42.805,6.029,13.2955,4.59952,2469.867,2019-8-20T05:41:45Z
2019-08-20T03:44:27Z,42.805,6.029,13.2954,4.59953,2469.867,2019-8-20T05:44:48Z
2019-08-20T03:47:30Z,42.805,6.029,13.2955,4.59954,2469.876,2019-8-20T05:47:51Z
2019-08-20T03:50:33Z,42.805,6.029,13.2953,4.59952,2469.83,2019-8-20T05:50:54Z
2019-08-20T03:53:36Z,42.805,6.029,13.2955,4.59954,2469.853,2019-8-20T05:53:58Z
2019-08-20T03:56:40Z,42.805,6.029,13.2957,4.59952,2469.844,2019-8-20T05:57:01Z
2019-08-20T03:59:43Z,42.805,6.029,13.2953,4.59954,2469.853,2019-8-20T06:00:04Z
2019-08-20T04:02:46Z,42.805,6.029,13.2957,4.59952,2469.853,2019-8-20T06:03:07Z
2019-08-20T04:05:49Z,42.805,6.029,13.2958,4.59952,2469.853,2019-8-20T06:06:10Z
2019-08-20T04:08:52Z,42.805,6.029,13.2958,4.59956,2469.844,2019-8-20T06:09:14Z
2019-08-20T04:11:56Z,42.805,6.029,13.2956,4.59952,2469.853,2019-8-20T06:12:17Z
2019-08-20T04:14:59Z,42.805,6.029,13.2956,4.59952,2469.853,2019-8-20T06:15:20Z
2019-08-20T04:18:02Z,42.805,6.029,13.2957,4.59953,2469.83,2019-8-20T06:18:23Z
2019-08-20T04:21:05Z,42.805,6.029,13.2956,4.59955,2469.853,2019-8-20T06:21:26Z
2019-08-20T04:24:08Z,42.805,6.029,13.2955,4.59956,2469.853,2019-8-20T06:24:30Z
2019-08-20T04:27:12Z,42.805,6.029,13.2957,4.59954,2469.853,2019-8-20T06:27:33Z
2019-08-20T04:30:15Z,42.805,6.029,13.2958,4.59952,2469.867,2019-8-20T06:30:36Z
2019-08-20T04:33:18Z,42.805,6.029,13.2957,4.59951,2469.867,2019-8-20T06:33:39Z
2019-08-20T04:36:21Z,42.805,6.029,13.2957,4.59954,2469.83,2019-8-20T06:36:42Z
2019-08-20T04:39:24Z,42.805,6.029,13.2956,4.59952,2469.853,2019-8-20T06:39:46Z
2019-08-20T04:42:28Z,42.805,6.029,13.2957,4.59956,2469.867,2019-8-20T06:42:49Z
2019-08-20T04:45:31Z,42.805,6.029,13.2958,4.59952,2469.914,2019-8-20T06:45:52Z
2019-08-20T04:48:34Z,42.805,6.029,13.2956,4.59953,2469.806,2019-8-20T06:48:55Z
2019-08-20T04:51:37Z,42.805,6.029,13.2957,4.59953,2469.867,2019-8-20T06:51:58Z
2019-08-20T04:54:40Z,42.805,6.029,13.2953,4.59955,2469.867,2019-8-20T06:55:01Z
2019-08-20T04:57:44Z,42.805,6.029,13.2957,4.59954,2469.867,2019-8-20T06:58:05Z
2019-08-20T05:00:47Z,42.805,6.029,13.2953,4.59952,2469.83,2019-8-20T07:01:08Z
2019-08-20T05:03:50Z,42.805,6.029,13.2958,4.59954,2469.867,2019-8-20T07:04:11Z
2019-08-20T05:06:53Z,42.805,6.029,13.2954,4.59952,2469.844,2019-8-20T07:07:14Z
2019-08-20T05:09:56Z,42.805,6.029,13.2953,4.59954,2469.867,2019-8-20T07:10:18Z
2019-08-20T05:13:00Z,42.805,6.029,13.2957,4.59954,2469.876,2019-8-20T07:13:21Z
2019-08-20T05:16:03Z,42.805,6.029,13.2960,4.59954,2469.867,2019-8-20T07:16:24Z
2019-08-20T05:19:06Z,42.805,6.029,13.2954,4.59955,2469.844,2019-8-20T07:19:27Z
2019-08-20T05:22:09Z,42.805,6.029,13.2953,4.59954,2469.83,2019-8-20T07:22:30Z
2019-08-20T05:25:12Z,42.805,6.029,13.2956,4.59952,2469.867,2019-8-20T07:25:33Z
2019-08-20T05:28:16Z,42.805,6.029,13.2958,4.59954,2469.806,2019-8-20T07:28:37Z
2019-08-20T05:31:19Z,42.805,6.029,13.2956,4.59952,2469.83,2019-8-20T07:31:40Z
2019-08-20T05:34:22Z,42.805,6.029,13.2956,4.59953,2469.876,2019-8-20T07:34:43Z
2019-08-20T05:37:25Z,42.805,6.029,13.2959,4.59952,2469.853,2019-8-20T07:37:46Z
2019-08-20T05:40:28Z,42.805,6.029,13.2960,4.59954,2469.83,2019-8-20T07:40:49Z
2019-08-20T05:43:32Z,42.805,6.029,13.2953,4.59953,2469.853,2019-8-20T07:43:53Z
2019-08-20T05:46:35Z,42.805,6.029,13.2957,4.59952,2469.844,2019-8-20T07:46:56Z
2019-08-20T05:49:38Z,42.805,6.029,13.2957,4.59953,2469.83,2019-8-20T07:49:59Z
2019-08-20T05:52:41Z,42.805,6.029,13.2957,4.59953,2469.867,2019-8-20T07:53:02Z
2019-08-20T05:55:44Z,42.805,6.029,13.2955,4.59954,2469.923,2019-8-20T07:56:05Z
2019-08-20T05:58:48Z,42.805,6.029,13.2957,4.59954,2469.867,2019-8-20T07:59:09Z
2019-08-20T06:01:51Z,42.805,6.029,13.2955,4.59954,2469.89,2019-8-20T08:02:12Z
2019-08-20T06:04:54Z,42.805,6.029,13.2955,4.59953,2469.853,2019-8-20T08:05:15Z
2019-08-20T06:07:57Z,42.805,6.029,13.2954,4.59954,2469.876,2019-8-20T08:08:18Z
2019-08-20T06:11:00Z,42.805,6.029,13.2953,4.59953,2469.876,2019-8-20T08:11:21Z
2019-08-20T06:14:04Z,42.805,6.029,13.2957,4.59952,2469.867,2019-8-20T08:14:25Z
2019-08-20T06:17:07Z,42.805,6.029,13.2954,4.59952,2469.89,2019-8-20T08:17:29Z
2019-08-20T06:20:11Z,42.805,6.029,13.2955,4.59951,2469.853,2019-8-20T08:20:32Z
2019-08-20T06:23:14Z,42.805,6.029,13.2954,4.59953,2469.914,2019-8-20T08:23:35Z
2019-08-20T06:26:17Z,42.805,6.029,13.2959,4.59954,2469.876,2019-8-20T08:26:38Z
2019-08-20T06:29:20Z,42.805,6.029,13.2957,4.59954,2469.853,2019-8-20T08:29:41Z
2019-08-20T06:32:23Z,42.805,6.029,13.2957,4.59955,2469.914,2019-8-20T08:32:44Z
2019-08-20T06:35:27Z,42.805,6.029,13.2954,4.59954,2469.876,2019-8-20T08:35:48Z
2019-08-20T06:38:30Z,42.805,6.029,13.2954,4.59954,2469.876,2019-8-20T08:38:51Z
2019-08-20T06:41:33Z,42.805,6.029,13.2953,4.59954,2469.89,2019-8-20T08:41:54Z
2019-08-20T06:44:36Z,42.805,6.029,13.2957,4.59953,2469.9,2019-8-20T08:44:57Z
2019-08-20T06:47:39Z,42.805,6.029,13.2957,4.59954,2469.89,2019-8-20T08:48:01Z
2019-08-20T06:50:43Z,42.805,6.029,13.2952,4.59953,2469.876,2019-8-20T08:51:04Z
2019-08-20T06:53:46Z,42.805,6.029,13.2957,4.59953,2469.89,2019-8-20T08:54:07Z
2019-08-20T06:56:49Z,42.805,6.029,13.2957,4.59954,2469.876,2019-8-20T08:57:10Z
2019-08-20T06:59:52Z,42.805,6.029,13.2955,4.59956,2469.9,2019-8-20T09:00:13Z
2019-08-20T07:02:55Z,42.805,6.029,13.2974,4.59959,2469.9,2019-8-20T09:03:16Z
2019-08-20T07:05:59Z,42.805,6.029,13.2967,4.59963,2469.914,2019-8-20T09:06:20Z
2019-08-20T07:09:02Z,42.805,6.029,13.2967,4.59963,2469.853,2019-8-20T09:09:23Z
2019-08-20T07:12:05Z,42.805,6.029,13.2956,4.59956,2469.9,2019-8-20T09:12:26Z
2019-08-20T07:15:08Z,42.805,6.029,13.2956,4.59954,2469.853,2019-8-20T09:15:29Z
2019-08-20T07:18:11Z,42.805,6.029,13.2953,4.59954,2469.937,2019-8-20T09:18:32Z
2019-08-20T07:21:15Z,42.805,6.029,13.2956,4.59954,2469.923,2019-8-20T09:21:36Z
2019-08-20T07:24:18Z,42.805,6.029,13.2956,4.59954,2469.96,2019-8-20T09:24:39Z
2019-08-20T07:27:21Z,42.805,6.029,13.2956,4.59954,2469.9,2019-8-20T09:27:42Z
2019-08-20T07:30:24Z,42.805,6.029,13.2953,4.59954,2469.947,2019-8-20T09:30:45Z
2019-08-20T07:33:27Z,42.805,6.029,13.2956,4.59954,2469.923,2019-8-20T09:33:48Z
2019-08-20T07:36:31Z,42.805,6.029,13.2955,4.59955,2469.923,2019-8-20T09:36:52Z
2019-08-20T07:39:34Z,42.805,6.029,13.2953,4.59954,2469.914,2019-8-20T09:39:55Z
2019-08-20T07:42:37Z,42.805,6.029,13.2957,4.59956,2469.9,2019-8-20T09:42:58Z
2019-08-20T07:45:40Z,42.805,6.029,13.2949,4.59954,2469.914,2019-8-20T09:46:01Z
2019-08-20T07:48:43Z,42.805,6.029,13.2954,4.59953,2469.923,2019-8-20T09:49:04Z
2019-08-20T07:51:46Z,42.805,6.029,13.2957,4.59954,2469.947,2019-8-20T09:52:08Z
2019-08-20T07:54:50Z,42.805,6.029,13.2958,4.59954,2469.923,2019-8-20T09:55:11Z
2019-08-20T07:57:53Z,42.805,6.029,13.2953,4.59954,2469.923,2019-8-20T09:58:14Z
2019-08-20T08:00:56Z,42.805,6.029,13.2956,4.59954,2469.947,2019-8-20T10:01:17Z
2019-08-20T08:03:59Z,42.805,6.029,13.2959,4.59953,2469.914,2019-8-20T10:04:20Z
2019-08-20T08:07:02Z,42.805,6.029,13.2953,4.59952,2469.923,2019-8-20T10:07:23Z
2019-08-20T08:10:06Z,42.805,6.029,13.2955,4.59953,2469.947,2019-8-20T10:10:27Z
2019-08-20T08:13:09Z,42.805,6.029,13.2958,4.59954,2469.923,2019-8-20T10:13:30Z
2019-08-20T08:16:12Z,42.805,6.029,13.2956,4.59955,2469.97,2019-8-20T10:16:33Z
2019-08-20T08:19:15Z,42.805,6.029,13.2953,4.59954,2469.947,2019-8-20T10:19:36Z
2019-08-20T08:22:18Z,42.805,6.029,13.2953,4.59953,2469.96,2019-8-20T10:22:40Z
2019-08-20T08:25:22Z,42.805,6.029,13.2955,4.59954,2469.923,2019-8-20T10:25:43Z
2019-08-20T08:28:25Z,42.805,6.029,13.2954,4.59953,2469.947,2019-8-20T10:28:46Z
2019-08-20T08:31:28Z,42.805,6.029,13.2953,4.59954,2469.947,2019-8-20T10:31:49Z
2019-08-20T08:34:31Z,42.805,6.029,13.2957,4.59953,2469.923,2019-8-20T10:34:52Z
2019-08-20T08:37:34Z,42.805,6.029,13.2952,4.59954,2469.947,2019-8-20T10:37:55Z
2019-08-20T08:40:38Z,42.805,6.029,13.2956,4.59955,2469.96,2019-8-20T10:40:59Z
2019-08-20T08:43:41Z,42.805,6.029,13.2953,4.59958,2469.947,2019-8-20T10:44:02Z
2019-08-20T08:46:44Z,42.805,6.029,13.2955,4.59954,2469.947,2019-8-20T10:47:05Z
2019-08-20T08:49:47Z,42.805,6.029,13.2958,4.59954,2469.96,2019-8-20T10:50:08Z
2019-08-20T08:52:50Z,42.805,6.029,13.2958,4.59955,2469.96,2019-8-20T10:53:11Z
2019-08-20T08:55:54Z,42.805,6.029,13.2956,4.59954,2469.97,2019-8-20T10:56:15Z
2019-08-20T08:58:57Z,42.805,6.029,13.2958,4.59954,2469.97,2019-8-20T10:59:18Z
2019-08-20T09:02:00Z,42.805,6.029,13.2958,4.59954,2469.993,2019-8-20T11:02:21Z
2019-08-20T09:05:03Z,42.805,6.029,13.2954,4.59955,2469.984,2019-8-20T11:05:24Z
2019-08-20T09:08:06Z,42.805,6.029,13.2957,4.59955,2469.947,2019-8-20T11:08:27Z
2019-08-20T09:11:10Z,42.805,6.029,13.2956,4.59953,2469.947,2019-8-20T11:11:31Z
2019-08-20T09:14:13Z,42.805,6.029,13.2952,4.59953,2469.97,2019-8-20T11:14:34Z
2019-08-20T09:17:16Z,42.805,6.029,13.2957,4.59954,2469.984,2019-8-20T11:17:37Z
2019-08-20T09:20:19Z,42.805,6.029,13.2955,4.59954,2469.947,2019-8-20T11:20:40Z
2019-08-20T09:23:22Z,42.805,6.029,13.2957,4.59954,2469.947,2019-8-20T11:23:43Z
2019-08-20T09:26:26Z,42.805,6.029,13.2955,4.59958,2469.97,2019-8-20T11:26:47Z
2019-08-20T09:29:29Z,42.805,6.029,13.2953,4.59953,2469.984,2019-8-20T11:29:50Z
2019-08-20T09:32:32Z,42.805,6.029,13.2953,4.59953,2469.947,2019-8-20T11:32:53Z
2019-08-20T09:35:35Z,42.805,6.029,13.2953,4.59954,2469.993,2019-8-20T11:35:56Z
2019-08-20T09:38:38Z,42.805,6.029,13.2957,4.59953,2469.984,2019-8-20T11:39:00Z
2019-08-20T09:41:42Z,42.805,6.029,13.2955,4.59954,2469.96,2019-8-20T11:42:03Z
2019-08-20T09:44:45Z,42.805,6.029,13.2956,4.59954,2469.97,2019-8-20T11:45:06Z
2019-08-20T09:47:48Z,42.805,6.029,13.2958,4.59955,2469.923,2019-8-20T11:48:09Z
2019-08-20T09:50:51Z,42.805,6.029,13.2953,4.59955,2469.96,2019-8-20T11:51:12Z
2019-08-20T09:53:54Z,42.805,6.029,13.2953,4.59953,2469.937,2019-8-20T11:54:16Z
2019-08-20T09:56:58Z,42.805,6.029,13.2956,4.59954,2470.007,2019-8-20T11:57:19Z
2019-08-20T10:00:01Z,42.805,6.029,13.2956,4.59953,2469.97,2019-8-20T12:00:22Z
2019-08-20T10:03:04Z,42.805,6.029,13.2953,4.59954,2469.947,2019-8-20T12:03:25Z
2019-08-20T10:06:07Z,42.805,6.029,13.2958,4.59954,2469.993,2019-8-20T12:06:28Z
2019-08-20T10:09:10Z,42.805,6.029,13.2952,4.59954,2469.97,2019-8-20T12:09:31Z
2019-08-20T10:12:14Z,42.805,6.029,13.2957,4.59953,2469.984,2019-8-20T12:12:35Z
2019-08-20T10:15:17Z,42.805,6.029,13.2953,4.59954,2470.007,2019-8-20T12:15:38Z
2019-08-20T10:18:20Z,42.805,6.029,13.2957,4.59957,2469.993,2019-8-20T12:18:41Z
2019-08-20T10:21:23Z,42.805,6.029,13.2957,4.59956,2469.984,2019-8-20T12:21:44Z
2019-08-20T10:24:26Z,42.805,6.029,13.2956,4.59954,2470.007,2019-8-20T12:24:47Z
2019-08-20T10:27:30Z,42.805,6.029,13.2953,4.59953,2469.96,2019-8-20T12:27:51Z
2019-08-20T10:30:33Z,42.805,6.029,13.2957,4.59953,2469.993,2019-8-20T12:30:54Z
2019-08-20T10:33:36Z,42.805,6.029,13.2953,4.59953,2469.984,2019-8-20T12:33:57Z
2019-08-20T10:36:39Z,42.805,6.029,13.2956,4.59953,2469.96,2019-8-20T12:37:00Z
2019-08-20T10:39:42Z,42.805,6.029,13.2958,4.59954,2469.97,2019-8-20T12:40:03Z
2019-08-20T10:42:46Z,42.805,6.029,13.2956,4.59954,2470.007,2019-8-20T12:43:07Z
2019-08-20T10:45:49Z,42.805,6.029,13.2949,4.59957,2469.947,2019-8-20T12:46:10Z
2019-08-20T10:48:52Z,42.805,6.029,13.2957,4.59953,2469.96,2019-8-20T12:49:13Z
2019-08-20T10:51:55Z,42.805,6.029,13.2956,4.59955,2470.007,2019-8-20T12:52:16Z
2019-08-20T10:54:58Z,42.805,6.029,13.2952,4.59956,2469.97,2019-8-20T12:55:19Z
2019-08-20T10:58:02Z,42.805,6.029,13.2958,4.59954,2469.923,2019-8-20T12:58:23Z
2019-08-20T11:01:05Z,42.805,6.029,13.2958,4.59954,2469.947,2019-8-20T13:01:26Z
2019-08-20T11:04:08Z,42.805,6.029,13.2953,4.59953,2469.923,2019-8-20T13:04:29Z
2019-08-20T11:07:11Z,42.805,6.029,13.2953,4.59954,2469.947,2019-8-20T13:07:32Z
2019-08-20T11:10:14Z,42.805,6.029,13.2959,4.59954,2469.984,2019-8-20T13:10:35Z
2019-08-20T11:13:18Z,42.805,6.029,13.2953,4.59952,2469.947,2019-8-20T13:13:39Z
2019-08-20T11:16:21Z,42.805,6.029,13.2954,4.59953,2469.947,2019-8-20T13:16:42Z
2019-08-20T11:19:24Z,42.805,6.029,13.2953,4.59954,2469.923,2019-8-20T13:19:45Z
2019-08-20T11:22:27Z,42.805,6.029,13.2953,4.59953,2469.96,2019-8-20T13:22:48Z
2019-08-20T11:25:30Z,42.805,6.029,13.2953,4.59955,2469.96,2019-8-20T13:25:51Z
2019-08-20T11:28:33Z,42.805,6.029,13.2954,4.59955,2469.96,2019-8-20T13:28:55Z
2019-08-20T11:31:37Z,42.805,6.029,13.2957,4.59954,2469.96,2019-8-20T13:31:58Z
2019-08-20T11:34:40Z,42.805,6.029,13.2958,4.59953,2469.937,2019-8-20T13:35:01Z
2019-08-20T11:37:43Z,42.805,6.029,13.2957,4.59954,2469.923,2019-8-20T13:38:04Z
2019-08-20T11:40:46Z,42.805,6.029,13.2953,4.59954,2469.937,2019-8-20T13:41:07Z
2019-08-20T11:43:49Z,42.805,6.029,13.2954,4.59954,2469.97,2019-8-20T13:44:11Z
2019-08-20T11:46:53Z,42.805,6.029,13.2956,4.59954,2469.923,2019-8-20T13:47:14Z
2019-08-20T11:49:56Z,42.805,6.029,13.2954,4.59957,2469.923,2019-8-20T13:50:17Z
2019-08-20T11:52:59Z,42.805,6.029,13.2954,4.59956,2469.923,2019-8-20T13:53:20Z
2019-08-20T11:56:02Z,42.805,6.029,13.2953,4.59954,2469.947,2019-8-20T13:56:23Z
2019-08-20T11:59:05Z,42.805,6.029,13.2956,4.59956,2469.923,2019-8-20T13:59:27Z
2019-08-20T12:02:09Z,42.805,6.029,13.2955,4.59953,2469.97,2019-8-20T14:02:30Z
2019-08-20T12:05:12Z,42.805,6.029,13.2956,4.59954,2469.96,2019-8-20T14:05:33Z
2019-08-20T12:08:15Z,42.805,6.029,13.2953,4.59955,2469.923,2019-8-20T14:08:36Z
2019-08-20T12:11:18Z,42.805,6.029,13.2960,4.59954,2469.923,2019-8-20T14:11:39Z
2019-08-20T12:14:21Z,42.805,6.029,13.2953,4.59954,2469.947,2019-8-20T14:14:42Z
2019-08-20T12:17:25Z,42.805,6.029,13.2957,4.59958,2469.9,2019-8-20T14:17:46Z
2019-08-20T12:20:28Z,42.805,6.029,13.2956,4.59953,2469.923,2019-8-20T14:20:49Z
2019-08-20T12:23:31Z,42.805,6.029,13.2955,4.59952,2469.914,2019-8-20T14:23:52Z
2019-08-20T12:26:34Z,42.805,6.029,13.2958,4.59956,2469.947,2019-8-20T14:26:55Z
2019-08-20T12:29:37Z,42.805,6.029,13.2952,4.59954,2469.914,2019-8-20T14:29:59Z
2019-08-20T12:32:41Z,42.805,6.029,13.2958,4.59953,2469.923,2019-8-20T14:33:02Z
2019-08-20T12:35:44Z,42.805,6.029,13.2957,4.59952,2469.9,2019-8-20T14:36:05Z
2019-08-20T12:38:47Z,42.805,6.029,13.2956,4.59954,2469.876,2019-8-20T14:39:08Z
2019-08-20T12:41:50Z,42.805,6.029,13.2956,4.59952,2469.923,2019-8-20T14:42:11Z
2019-08-20T12:44:54Z,42.805,6.029,13.2957,4.59953,2469.876,2019-8-20T14:45:15Z
2019-08-20T12:47:57Z,42.805,6.029,13.2954,4.59954,2469.9,2019-8-20T14:48:18Z
2019-08-20T12:51:00Z,42.805,6.029,13.2958,4.59953,2469.923,2019-8-20T14:51:21Z
2019-08-20T12:54:03Z,42.805,6.029,13.2958,4.59953,2469.96,2019-8-20T14:54:24Z
2019-08-20T12:57:06Z,42.805,6.029,13.2954,4.59953,2469.876,2019-8-20T14:57:27Z
2019-08-20T13:00:09Z,42.805,6.029,13.2954,4.59953,2469.9,2019-8-20T15:00:31Z
2019-08-20T13:03:13Z,42.805,6.029,13.2958,4.59953,2469.876,2019-8-20T15:03:34Z
2019-08-20T13:06:16Z,42.805,6.029,13.2957,4.59954,2469.876,2019-8-20T15:06:37Z
2019-08-20T13:09:19Z,42.805,6.029,13.2956,4.59953,2469.9,2019-8-20T15:09:40Z
2019-08-20T13:12:22Z,42.805,6.029,13.2952,4.59953,2469.89,2019-8-20T15:12:43Z
2019-08-20T13:15:26Z,42.805,6.029,13.2959,4.59956,2469.89,2019-8-20T15:15:47Z
2019-08-20T13:18:29Z,42.805,6.029,13.2954,4.59954,2469.9,2019-8-20T15:18:50Z
2019-08-20T13:21:32Z,42.805,6.029,13.2952,4.59953,2469.89,2019-8-20T15:21:53Z
2019-08-20T13:24:35Z,42.805,6.029,13.2958,4.59954,2469.867,2019-8-20T15:24:56Z
2019-08-20T13:27:38Z,42.805,6.029,13.2956,4.59955,2469.876,2019-8-20T15:27:59Z
2019-08-20T13:30:42Z,42.805,6.029,13.2956,4.59954,2469.914,2019-8-20T15:31:03Z
2019-08-20T13:33:45Z,42.805,6.029,13.2958,4.59954,2469.853,2019-8-20T15:34:06Z
2019-08-20T13:36:48Z,42.805,6.029,13.2954,4.59955,2469.89,2019-8-20T15:37:09Z
2019-08-20T13:39:51Z,42.805,6.029,13.2957,4.59952,2469.853,2019-8-20T15:40:12Z
2019-08-20T13:42:54Z,42.805,6.029,13.2955,4.59953,2469.853,2019-8-20T15:43:15Z
2019-08-20T13:45:58Z,42.805,6.029,13.2953,4.59957,2469.89,2019-8-20T15:46:19Z
2019-08-20T13:49:01Z,42.805,6.029,13.2957,4.59954,2469.89,2019-8-20T15:49:22Z
2019-08-20T13:52:04Z,42.805,6.029,13.2955,4.59952,2469.867,2019-8-20T15:52:25Z
2019-08-20T13:55:08Z,42.805,6.029,13.2956,4.59952,2469.9,2019-8-20T15:55:29Z
2019-08-20T13:58:11Z,42.805,6.029,13.2955,4.59953,2469.83,2019-8-20T15:58:32Z
2019-08-20T14:01:14Z,42.805,6.029,13.2956,4.59954,2469.876,2019-8-20T16:01:35Z
2019-08-20T14:04:17Z,42.805,6.029,13.2953,4.59953,2469.876,2019-8-20T16:04:38Z
2019-08-20T14:07:20Z,42.805,6.029,13.2954,4.59954,2469.876,2019-8-20T16:07:41Z
2019-08-20T14:10:24Z,42.805,6.029,13.2961,4.59954,2469.89,2019-8-20T16:10:45Z
2019-08-20T14:13:27Z,42.805,6.029,13.2958,4.59954,2469.876,2019-8-20T16:13:48Z
2019-08-20T14:16:30Z,42.805,6.029,13.2958,4.59953,2469.853,2019-8-20T16:16:51Z
2019-08-20T14:19:33Z,42.805,6.029,13.2952,4.59954,2469.853,2019-8-20T16:19:54Z
2019-08-20T14:22:36Z,42.805,6.029,13.2957,4.59954,2469.867,2019-8-20T16:22:57Z
2019-08-20T14:25:39Z,42.805,6.029,13.2960,4.59953,2469.853,2019-8-20T16:26:01Z
2019-08-20T14:28:43Z,42.805,6.029,13.2955,4.59954,2469.876,2019-8-20T16:29:04Z
2019-08-20T14:31:46Z,42.805,6.029,13.2953,4.59953,2469.89,2019-8-20T16:32:07Z
2019-08-20T14:34:49Z,42.805,6.029,13.2957,4.59952,2469.876,2019-8-20T16:35:10Z
2019-08-20T14:37:52Z,42.805,6.029,13.2957,4.59954,2469.876,2019-8-20T16:38:13Z
2019-08-20T14:40:55Z,42.805,6.029,13.2958,4.59954,2469.876,2019-8-20T16:41:16Z
2019-08-20T14:43:59Z,42.805,6.029,13.2957,4.59956,2469.867,2019-8-20T16:44:20Z
2019-08-20T14:47:02Z,42.805,6.029,13.2956,4.59954,2469.853,2019-8-20T16:47:23Z
2019-08-20T14:50:05Z,42.805,6.029,13.2953,4.59952,2469.89,2019-8-20T16:50:26Z
2019-08-20T14:53:08Z,42.805,6.029,13.2953,4.59953,2469.83,2019-8-20T16:53:29Z
2019-08-20T14:56:12Z,42.805,6.029,13.2958,4.59953,2469.83,2019-8-20T16:56:33Z
2019-08-20T14:59:15Z,42.805,6.029,13.2957,4.59953,2469.853,2019-8-20T16:59:36Z
2019-08-20T15:02:18Z,42.805,6.029,13.2957,4.59953,2469.844,2019-8-20T17:02:39Z
2019-08-20T15:05:21Z,42.805,6.029,13.2957,4.59954,2469.867,2019-8-20T17:05:42Z
2019-08-20T15:08:24Z,42.805,6.029,13.2958,4.59953,2469.867,2019-8-20T17:08:45Z
2019-08-20T15:11:27Z,42.805,6.029,13.2956,4.59952,2469.83,2019-8-20T17:11:49Z
2019-08-20T15:14:31Z,42.805,6.029,13.2956,4.59953,2469.867,2019-8-20T17:14:52Z